Date String (YYYY-MM-DD hh:mm:ss) UTC,Instrument flags,Ambient pressure (hPa),Sample flow (lpm),Bypass flow (lpm),Sample temperature (°C),Ambient temperature (°C),ASC tube jacket temperature (°C),LED temperature (°C),Box temperature (°C),Sample RH (%),Span deviation,Mass concentration (μg/m³),Mass concentration (μg/m³),Mass concentration (μg/m³)
DateTimeUTC,F1_M11,P_M11,Q1_M11,Q2_M11,T1_M11,T2_M11,T3_M11,T4_M11,T5_M11,U1_M11,ZSPAN_M11,X0_M11,X2_M11,X1_M11
2022-08-17 01:00:00,,0831.0,5.00,0.00,31.3,27.4,00.0,39.8,31.9,33.1,0000.0,0009.10,0005.49,0004.92
2022-08-17 01:01:00,,0831.0,5.00,0.00,31.2,27.5,00.0,39.8,31.9,33.0,0000.0,0009.30,0005.51,0004.91
2022-08-17 01:02:00,,0831.0,5.01,0.00,31.1,27.7,00.0,39.7,31.9,33.4,0000.0,0009.39,0005.53,0004.91
2022-08-17 01:03:00,,0831.0,4.99,0.00,31.0,27.8,00.0,39.7,31.9,33.1,0000.0,0009.53,0005.55,0004.90
2022-08-17 01:04:00,,0831.1,5.00,0.00,31.0,28.0,00.0,39.6,31.9,32.7,0000.0,0009.52,0005.52,0004.89
2022-08-17 01:05:00,,0831.0,5.00,0.00,31.0,28.1,00.0,39.6,32.0,32.4,0000.0,0009.64,0005.48,0004.86
2022-08-17 01:06:00,,0831.0,4.99,0.00,30.9,28.3,00.0,39.6,32.0,31.7,0000.0,0009.73,0005.44,0004.82
2022-08-17 01:07:00,,0831.0,5.00,0.00,30.9,28.4,00.0,39.5,32.0,31.0,0000.0,0009.78,0005.39,0004.76
2022-08-17 01:08:00,,0831.1,5.00,0.00,30.9,28.5,00.0,39.5,32.0,30.2,0000.0,0009.43,0005.30,0004.69
2022-08-17 01:09:00,,0831.1,4.99,0.00,30.9,28.6,00.0,39.5,32.0,29.6,0000.0,0009.23,0005.19,0004.61
2022-08-17 01:10:00,,0831.0,5.01,0.00,30.8,28.7,00.0,39.5,32.0,29.5,0000.0,0009.15,0005.09,0004.52
2022-08-17 01:11:00,,0831.0,5.00,0.00,30.8,28.7,00.0,39.5,32.1,29.2,0000.0,0009.03,0005.01,0004.44
2022-08-17 01:12:00,,0831.0,5.00,0.00,30.8,28.8,00.0,39.5,32.1,28.9,0000.0,0008.77,0004.91,0004.37
2022-08-17 01:13:00,,0831.1,5.00,0.00,30.8,28.9,00.0,39.4,32.1,28.8,0000.0,0008.67,0004.82,0004.30
2022-08-17 01:14:00,,0831.0,5.00,0.00,30.8,28.9,00.0,39.4,32.2,29.0,0000.0,0008.41,0004.71,0004.23
2022-08-17 01:15:00,,0831.0,5.00,0.00,30.8,29.0,00.0,39.4,32.2,28.9,0000.0,0008.24,0004.63,0004.17
2022-08-17 01:16:00,,0831.0,5.00,0.00,30.8,28.7,00.0,39.4,32.1,28.6,0000.0,0007.99,0004.56,0004.11
2022-08-17 01:17:00,,0831.0,5.01,0.00,30.7,27.9,00.0,39.3,31.9,29.0,0000.0,0007.81,0004.49,0004.07
2022-08-17 01:18:00,,0831.0,5.00,0.00,30.6,27.4,00.0,39.3,31.7,29.1,0000.0,0007.51,0004.47,0004.04
2022-08-17 01:19:00,,0831.1,4.99,0.00,30.5,27.3,00.0,39.2,31.6,29.7,0000.0,0007.50,0004.48,0004.03
2022-08-17 01:20:00,,0831.0,5.00,0.00,30.4,27.3,00.0,39.2,31.6,28.8,0000.0,0007.61,0004.48,0004.02
2022-08-17 01:21:00,,0831.0,4.99,0.00,30.3,27.4,00.0,39.1,31.6,28.8,0000.0,0007.60,0004.46,0004.01
2022-08-17 01:22:00,,0831.0,5.01,0.00,30.3,27.6,00.0,39.1,31.6,28.9,0000.0,0007.58,0004.45,0004.00
2022-08-17 01:23:00,,0831.0,5.00,0.00,30.2,27.8,00.0,39.0,31.7,29.3,0000.0,0007.55,0004.44,0003.99
2022-08-17 01:24:00,,0831.0,5.00,0.00,30.2,27.9,00.0,39.0,31.7,28.4,0000.0,0007.47,0004.42,0003.97
2022-08-17 01:25:00,,0831.0,5.01,0.00,30.2,28.1,00.0,39.0,31.7,28.8,0000.0,0007.63,0004.43,0003.96
2022-08-17 01:26:00,,0831.0,5.00,0.00,30.2,28.2,00.0,39.0,31.7,28.9,0000.0,0008.48,0004.45,0003.93
2022-08-17 01:27:00,,0831.0,5.00,0.00,30.2,28.3,00.0,39.0,31.8,28.7,0000.0,0008.66,0004.43,0003.91
2022-08-17 01:28:00,,0831.1,5.00,0.00,30.2,28.4,00.0,39.0,31.8,29.0,0000.0,0008.64,0004.43,0003.89
2022-08-17 01:29:00,,0831.1,5.00,0.00,30.2,28.5,00.0,38.9,31.8,29.5,0000.0,0008.55,0004.39,0003.87
2022-08-17 01:30:00,,0831.1,4.99,0.00,30.2,28.6,00.0,38.9,31.8,29.7,0000.0,0008.48,0004.36,0003.86
2022-08-17 01:31:00,,0831.1,5.00,0.00,30.2,28.6,00.0,38.9,31.8,28.9,0000.0,0008.42,0004.37,0003.85
2022-08-17 01:32:00,,0831.1,5.00,0.00,30.2,28.7,00.0,38.9,31.9,28.5,0000.0,0008.35,0004.35,0003.84
2022-08-17 01:33:00,,0831.1,5.00,0.00,30.2,28.8,00.0,38.9,31.9,28.8,0000.0,0008.47,0004.34,0003.83
2022-08-17 01:34:00,,0831.1,5.00,0.00,30.2,28.8,00.0,38.9,31.9,28.2,0000.0,0008.48,0004.33,0003.82
2022-08-17 01:35:00,,0831.1,5.00,0.00,30.2,28.9,00.0,38.9,31.9,27.8,0000.0,0008.44,0004.33,0003.82
2022-08-17 01:36:00,,0831.1,4.99,0.00,30.2,28.7,00.0,38.9,31.9,28.2,0000.0,0008.27,0004.30,0003.81
2022-08-17 01:37:00,,0831.0,5.01,0.00,30.2,28.0,00.0,38.8,31.7,27.7,0000.0,0007.54,0004.31,0003.81
2022-08-17 01:38:00,,0831.0,4.99,0.00,30.1,27.3,00.0,38.8,31.5,27.0,0000.0,0007.56,0004.31,0003.80
2022-08-17 01:39:00,,0831.0,5.00,0.00,30.0,27.1,00.0,38.8,31.4,27.6,0000.0,0007.66,0004.28,0003.79
2022-08-17 01:40:00,,0831.0,5.00,0.00,29.9,27.2,00.0,38.7,31.3,27.0,0000.0,0007.69,0004.27,0003.78
2022-08-17 01:41:00,,0831.0,4.99,0.00,29.8,27.3,00.0,38.7,31.3,27.5,0000.0,0007.72,0004.28,0003.77
2022-08-17 01:42:00,,0831.0,5.00,0.00,29.8,27.4,00.0,38.7,31.3,27.0,0000.0,0007.69,0004.24,0003.76
2022-08-17 01:43:00,,0831.0,5.00,0.00,29.8,27.6,00.0,38.6,31.4,27.0,0000.0,0007.70,0004.22,0003.76
2022-08-17 01:44:00,,0831.1,5.02,0.00,29.8,27.8,00.0,38.6,31.4,27.4,0000.0,0007.54,0004.21,0003.76
2022-08-17 01:45:00,,0831.1,5.00,0.00,29.8,27.9,00.0,38.6,31.4,27.2,0000.0,0007.46,0004.22,0003.77
2022-08-17 01:46:00,,0831.2,5.01,0.00,29.8,28.0,00.0,38.6,31.5,27.3,0000.0,0007.45,0004.21,0003.77
2022-08-17 01:47:00,,0831.2,4.99,0.00,29.8,28.2,00.0,38.6,31.5,27.1,0000.0,0007.51,0004.22,0003.77
2022-08-17 01:48:00,,0831.2,5.00,0.00,29.8,28.3,00.0,38.6,31.5,27.3,0000.0,0007.78,0004.19,0003.76
2022-08-17 01:49:00,,0831.2,5.00,0.00,29.8,28.3,00.0,38.6,31.6,27.5,0000.0,0007.66,0004.18,0003.77
2022-08-17 01:50:00,,0831.2,5.00,0.00,29.8,28.4,00.0,38.6,31.6,27.6,0000.0,0007.51,0004.19,0003.78
2022-08-17 01:51:00,,0831.2,5.00,0.00,29.8,28.5,00.0,38.6,31.6,27.7,0000.0,0007.63,0004.19,0003.79
2022-08-17 01:52:00,,0831.2,5.00,0.00,29.8,28.6,00.0,38.6,31.7,27.2,0000.0,0007.56,0004.16,0003.78
2022-08-17 01:53:00,,0831.2,5.00,0.00,29.9,28.6,00.0,38.6,31.7,26.9,0000.0,0007.50,0004.14,0003.77
2022-08-17 01:54:00,,0831.2,5.00,0.00,29.9,28.7,00.0,38.6,31.7,27.5,0000.0,0007.45,0004.15,0003.78
2022-08-17 01:55:00,,0831.1,5.00,0.00,29.9,28.7,00.0,38.6,31.7,27.2,0000.0,0007.41,0004.13,0003.77
2022-08-17 01:56:00,,0831.2,5.00,0.00,29.9,28.8,00.0,38.6,31.7,27.3,0000.0,0007.49,0004.13,0003.77
2022-08-17 01:57:00,,0831.2,5.00,0.00,29.9,28.8,00.0,38.6,31.8,27.1,0000.0,0007.81,0004.18,0003.78
2022-08-17 01:58:00,,0831.2,5.00,0.00,30.0,28.6,00.0,38.6,31.7,27.1,0000.0,0007.82,0004.18,0003.78
2022-08-17 01:59:00,,0831.2,4.99,0.00,29.9,28.0,00.0,38.6,31.6,27.0,0000.0,0007.46,0004.16,0003.77
